Hourly Weather Rudno

Today, 16 April, Friday

Time Temperature Precipitation Wind Pressure Humidity
00:00 +3°C° 0.2 mm 4 mps 748 mmHg 95%
01:00 +1°C° 0 mm 4 mps 748 mmHg 95%
02:00 +1°C° 0.2 mm 4 mps 748 mmHg 95%
03:00 +1°C° 0.2 mm 4 mps 748 mmHg 95%
04:00 +1°C° 0.2 mm 4 mps 748 mmHg 95%
05:00 +1°C° 0.1 mm 4 mps 747 mmHg 95%
06:00 +1°C° 0.1 mm 4 mps 747 mmHg 95%
07:00 +1°C° 0.1 mm 4 mps 747 mmHg 95%
08:00 +3°C° 0.1 mm 4 mps 747 mmHg 94%
09:00 +3°C° 0.1 mm 4 mps 747 mmHg 93%
10:00 +3°C° 0.1 mm 4 mps 747 mmHg 92%
11:00 +2°C° 0.3 mm 5 mps 747 mmHg 92%
12:00 +2°C° 0.3 mm 5 mps 747 mmHg 93%
13:00 +3°C° 0.3 mm 5 mps 747 mmHg 93%
14:00 +3°C° 0.9 mm 4 mps 747 mmHg 94%
15:00 +3°C° 0.9 mm 4 mps 747 mmHg 95%
16:00 +3°C° 0.9 mm 4 mps 747 mmHg 96%
17:00 +3°C° 0 mm 4 mps 747 mmHg 96%
18:00 +3°C° 0 mm 3 mps 747 mmHg 96%
19:00 +3°C° 0 mm 3 mps 748 mmHg 97%
20:00 +4°C° 0 mm 3 mps 748 mmHg 97%
21:00 +4°C° 0 mm 3 mps 748 mmHg 97%
22:00 +5°C° 0 mm 2 mps 748 mmHg 97%
23:00 +4°C° 0 mm 3 mps 748 mmHg 97%

Tomorrow, 17 April, Saturday

Time Temperature Precipitation Wind Pressure Humidity
00:00 +5°C° 0 mm 3 mps 748 mmHg 97%
01:00 +5°C° 0 mm 3 mps 748 mmHg 97%
02:00 +5°C° 0 mm 3 mps 748 mmHg 97%
03:00 +5°C° 0 mm 3 mps 748 mmHg 97%
04:00 +5°C° 0 mm 3 mps 748 mmHg 97%
05:00 +5°C° 0.2 mm 3 mps 748 mmHg 97%
06:00 +7°C° 0.2 mm 3 mps 748 mmHg 96%
07:00 +7°C° 0.2 mm 3 mps 748 mmHg 96%
08:00 +8°C° 0.3 mm 3 mps 748 mmHg 92%
09:00 +9°C° 0.3 mm 3 mps 748 mmHg 89%
10:00 +9°C° 0.3 mm 3 mps 748 mmHg 85%
11:00 +10°C° 0.1 mm 3 mps 748 mmHg 82%
12:00 +10°C° 0.1 mm 3 mps 749 mmHg 79%
13:00 +11°C° 0.1 mm 4 mps 749 mmHg 75%
14:00 +11°C° 0.1 mm 4 mps 749 mmHg 74%
15:00 +11°C° 0.1 mm 4 mps 749 mmHg 73%
16:00 +11°C° 0.1 mm 4 mps 749 mmHg 72%
17:00 +10°C° 0 mm 4 mps 749 mmHg 77%
18:00 +9°C° 0 mm 3 mps 749 mmHg 82%
19:00 +8°C° 0 mm 3 mps 749 mmHg 87%
20:00 +7°C° 0 mm 3 mps 749 mmHg 89%
21:00 +7°C° 0 mm 2 mps 749 mmHg 91%
22:00 +6°C° 0 mm 2 mps 749 mmHg 93%
23:00 +6°C° 0 mm 2 mps 749 mmHg 94%

Day after tomorrow, 18 April, Sunday

Time Temperature Precipitation Wind Pressure Humidity
00:00 +6°C° 0 mm 2 mps 749 mmHg 94%
01:00 +6°C° 0 mm 2 mps 749 mmHg 94%
02:00 +6°C° 0 mm 2 mps 749 mmHg 94%
03:00 +5°C° 0 mm 2 mps 749 mmHg 94%
04:00 +5°C° 0 mm 2 mps 749 mmHg 95%
05:00 +6°C° 0 mm 2 mps 749 mmHg 92%
06:00 +7°C° 0 mm 2 mps 749 mmHg 89%
07:00 +8°C° 0 mm 3 mps 750 mmHg 87%
08:00 +9°C° 0.1 mm 3 mps 750 mmHg 84%
09:00 +10°C° 0.1 mm 3 mps 750 mmHg 81%
10:00 +10°C° 0.1 mm 3 mps 750 mmHg 78%
11:00 +11°C° 0.3 mm 3 mps 750 mmHg 79%
12:00 +12°C° 0.3 mm 2 mps 750 mmHg 80%
13:00 +12°C° 0.3 mm 2 mps 750 mmHg 80%
14:00 +13°C° 0.2 mm 2 mps 749 mmHg 77%
15:00 +13°C° 0.2 mm 2 mps 749 mmHg 75%
16:00 +13°C° 0.2 mm 3 mps 749 mmHg 72%
17:00 +13°C° 0.3 mm 2 mps 749 mmHg 77%
18:00 +12°C° 0.3 mm 2 mps 749 mmHg 82%
19:00 +10°C° 0.3 mm 2 mps 749 mmHg 87%
20:00 +9°C° 0 mm 2 mps 749 mmHg 88%
21:00 +9°C° 0 mm 2 mps 749 mmHg 88%
22:00 +9°C° 0 mm 2 mps 749 mmHg 89%
23:00 +9°C° 0 mm 2 mps 749 mmHg 90%

19 April, Monday

Time Temperature Precipitation Wind Pressure Humidity
00:00 +9°C° 0 mm 3 mps 749 mmHg 91%
01:00 +9°C° 0 mm 3 mps 749 mmHg 92%
02:00 +8°C° 0 mm 3 mps 749 mmHg 92%
03:00 +7°C° 0 mm 3 mps 749 mmHg 93%
04:00 +5°C° 0 mm 3 mps 749 mmHg 93%
05:00 +7°C° 0 mm 3 mps 749 mmHg 88%
06:00 +8°C° 0 mm 3 mps 749 mmHg 82%
07:00 +8°C° 0 mm 4 mps 749 mmHg 76%
08:00 +10°C° 0 mm 4 mps 749 mmHg 69%
09:00 +10°C° 0 mm 5 mps 749 mmHg 62%
10:00 +11°C° 0 mm 6 mps 749 mmHg 54%
11:00 +12°C° 0 mm 5 mps 749 mmHg 56%
12:00 +12°C° 0 mm 5 mps 749 mmHg 58%
13:00 +10°C° 0 mm 5 mps 748 mmHg 60%
14:00 +10°C° 0 mm 5 mps 748 mmHg 61%
15:00 +11°C° 0 mm 4 mps 748 mmHg 63%
16:00 +11°C° 0 mm 4 mps 748 mmHg 64%
17:00 +10°C° 0 mm 3 mps 748 mmHg 67%
18:00 +9°C° 0 mm 3 mps 748 mmHg 71%
19:00 +9°C° 0 mm 2 mps 748 mmHg 74%
20:00 +8°C° 0 mm 2 mps 747 mmHg 77%
21:00 +8°C° 0 mm 2 mps 747 mmHg 80%
22:00 +7°C° 0 mm 2 mps 747 mmHg 83%
23:00 +6°C° 0 mm 2 mps 747 mmHg 85%

20 April, Tuesday

Time Temperature Precipitation Wind Pressure Humidity
00:00 +6°C° 0 mm 2 mps 747 mmHg 87%
01:00 +5°C° 0 mm 2 mps 747 mmHg 89%
02:00 +5°C° 0 mm 2 mps 746 mmHg 87%
03:00 +5°C° 0 mm 2 mps 746 mmHg 84%
04:00 +6°C° 0 mm 2 mps 746 mmHg 82%
05:00 +6°C° 0 mm 2 mps 746 mmHg 82%
06:00 +6°C° 0 mm 2 mps 746 mmHg 81%
07:00 +6°C° 0 mm 2 mps 745 mmHg 81%
08:00 +8°C° 0.1 mm 3 mps 745 mmHg 75%
09:00 +9°C° 0.1 mm 3 mps 745 mmHg 69%
10:00 +10°C° 0.1 mm 3 mps 745 mmHg 62%
11:00 +10°C° 0.2 mm 3 mps 744 mmHg 62%
12:00 +10°C° 0.2 mm 3 mps 744 mmHg 62%
13:00 +11°C° 0.2 mm 3 mps 744 mmHg 62%
14:00 +10°C° 0.2 mm 4 mps 743 mmHg 64%
15:00 +10°C° 0.2 mm 4 mps 743 mmHg 65%
16:00 +10°C° 0.2 mm 4 mps 743 mmHg 66%
17:00 +8°C° 0.1 mm 4 mps 743 mmHg 72%
18:00 +8°C° 0.1 mm 3 mps 743 mmHg 78%
19:00 +7°C° 0.1 mm 3 mps 743 mmHg 84%
20:00 +5°C° 0 mm 3 mps 743 mmHg 87%
21:00 +5°C° 0 mm 2 mps 743 mmHg 90%
22:00 +4°C° 0 mm 2 mps 743 mmHg 94%
23:00 +4°C° 0 mm 2 mps 742 mmHg 93%

21 April, Wednesday

Time Temperature Precipitation Wind Pressure Humidity
00:00 +4°C° 0 mm 2 mps 742 mmHg 93%
01:00 +4°C° 0 mm 2 mps 742 mmHg 93%
02:00 +4°C° 0 mm 2 mps 742 mmHg 92%
03:00 +4°C° 0 mm 2 mps 742 mmHg 92%
04:00 +4°C° 0 mm 2 mps 742 mmHg 92%
05:00 +3°C° 0 mm 3 mps 742 mmHg 89%
06:00 +4°C° 0 mm 3 mps 742 mmHg 87%
07:00 +5°C° 0 mm 3 mps 742 mmHg 84%
08:00 +7°C° 0.1 mm 3 mps 742 mmHg 78%
09:00 +8°C° 0.1 mm 3 mps 742 mmHg 72%
10:00 +9°C° 0.1 mm 3 mps 742 mmHg 66%
11:00 +9°C° 0.1 mm 3 mps 742 mmHg 64%
12:00 +10°C° 0.1 mm 3 mps 742 mmHg 61%
13:00 +10°C° 0.1 mm 3 mps 742 mmHg 59%
14:00 +10°C° 0.1 mm 3 mps 742 mmHg 59%
15:00 +10°C° 0.1 mm 3 mps 742 mmHg 60%
16:00 +10°C° 0.1 mm 3 mps 742 mmHg 61%
17:00 +9°C° 0 mm 3 mps 742 mmHg 67%
18:00 +7°C° 0 mm 2 mps 742 mmHg 73%
19:00 +6°C° 0 mm 2 mps 742 mmHg 79%
20:00 +5°C° 0 mm 2 mps 742 mmHg 80%
21:00 +5°C° 0 mm 2 mps 742 mmHg 81%
22:00 +4°C° 0 mm 2 mps 742 mmHg 82%
23:00 +4°C° 0 mm 2 mps 742 mmHg 83%
Show more